www.pogodaiklimat.ru

Погода и климат >> Архив погоды >> Китай >> Хэйлунцзян >> Суйфэньхэ


ПОГОДА в Суйфэньхэ

  • Прогноз погоды в Суйфэньхэ
  • Монитор погоды в Суйфэньхэ

АРХИВ ПОГОДЫ в Суйфэньхэ

Время (UTC), дата Ветер
(напр.,м/с)
 
Видим.   Явления Облачность Т
(С)
Тd
(С)
f
(%)
Тe
(С)
Тes
(С)
Комфортность P
(гПа)
Po
(гПа)
Тmin
(С)
Tmax
(С)
R
(мм)
R24
(мм)
S
(см)
03 13.09 ЮВ 4 30 км 9/9 600 м
[]
+18.9 +11.2 61 +20 +20 1013.9 956.5
06 13.09 Ю 5 30 км 9/9 600 м
[]
+20.0 +12.7 63 +22 +22 комфорт 1012.2 955.1 +7.4
09 13.09 ЮВ 1 30 км 9/9 600 м
[]
+16.8 +11.9 73 +18 +18 1012.0 954.3
12 13.09 ЮЗ 4 30 км слаб. дождь 9/9 1000 м
[]
+15.6 +12.5 82 +15 +15 1010.8 952.9 0.0
18 13.09 З 2 н/о слаб. дождь ?/? +14.3 +13.5 95 +14 +14 1008.2 950.2 +21.3 1
21 13.09 З 3 3600 м слаб. дождь н/о +14.3 +14.0 98 +13 +13 1009.7 951.7
00 14.09 СЗ 1 30 км 10/10 600 м
[]
+13.6 +11.7 88 +14 +14 1012.2 953.9 2
03 14.09 З 5 30 км 9/9 600 м
[]
+16.5 +11.0 70 +16 +16 1012.0 954.3
06 14.09 С 2 30 км 1/1 600 м
[]
+19.4 +6.2 42 +21 +27 комфорт 1011.3 954.1 +13.2
09 14.09 С 1 30 км ясно +17.4 +5.7 46 +18 +19 1013.1 955.5
12 14.09 З 2 30 км ясно +11.1 +7.6 79 +10 +10 1016.0 957.0
18 14.09 СЗ 2 400 м туман ?/? +5.8 +5.5 98 +3 +3 1016.0 955.9 +20.1
21 14.09 СЗ 2 300 м туман н/о +4.4 +4.3 99 +1 +1 1016.3 955.9
00 15.09 СЗ 2 30 км ясно +10.1 +7.7 85 +9 +14 1016.9 949.9
03 15.09 ЮВ 3 30 км ясно +19.2 +7.6 47 +20 +30 1014.3 956.9
06 15.09 В 2 30 км ясно +21.1 +4.6 34 +21 +28 комфорт 1011.9 945.9 +4.3
09 15.09 Ю 4 30 км ясно +17.3 +6.5 49 +17 +17 1012.2 954.6
12 15.09 З 1 30 км ясно +14.5 +5.6 55 +15 +15 1011.5 945.2
18 15.09 З 3 30 км ?/? +10.2 +6.4 77 +8 +8 1010.3 951.4 +21.5
21 15.09 СЗ 2 30 км н/о +7.9 +6.4 90 +6 +6 1012.3 952.8
00 16.09 З 3 30 км ясно +14.8 +9.0 68 +14 +18 1013.5 955.3
03 16.09 З 4 30 км ясно +17.9 +5.5 44 +18 +26 1013.2 955.7
06 16.09 СЗ 3 30 км ясно +18.8 +2.6 34 +19 +25 1013.1 955.7 +7.7
09 16.09 З 3 30 км ясно +15.1 -1.5 32 +15 +15 1014.8 956.6
12 16.09 З 3 25 км ?/? +10.5 -0.8 45 +9 +9 1016.2 957.0
21 16.09 н/о
00 17.09 З 3 30 км ясно +8.5 +2.3 65 +6 +6 1018.8 959.1
03 17.09 З 2 30 км ясно +14.6 +0.1 37
06 17.09 СВ 2 30 км ясно +17.2 +0.8 33 +4.3
09 17.09 В 3 30 км ясно +13.1 +4.8 57 +12 +12 1013.5 955.0
12 17.09 В 1 30 км ясно +10.5 +5.1 69 +10 +10 1011.7 952.8
18 17.09 З 6 15 км слаб. дождь ?/? +8.9 +7.2 89 +5 +5 1008.5 949.4 +17.8 0.6
21 17.09 З 6 30 км ?/? +6.0 +1.9 75 +1 +1 1010.6 950.8
00 18.09 З 11
{26}
30 км ясно +5.5 -1.9 59 -1 -0 1013.5 953.5 0.4
03 18.09 З 9
{26}
30 км 1/1 600 м
[]
+8.4 -3.1 44 +4 +5 1014.5 955.0
06 18.09 З 8
{24}
30 км слаб. дождь 9/9 600 м
[]
+7.3 -1.9 52 +3 +3 1014.5 954.8 +5.3 0.0
09 18.09 З 8
{18}
30 км {дождь} 1/1 1000 м
[]
+7.4 -3.5 46 +3 +3 1015.2 955.4
12 18.09 З 5
{17}
30 км {дождь} 1/1 1000 м
[]
+6.2 -2.7 53 +2 +2 1016.6 956.5 0.1
18 18.09 З 3 30 км ?/? +5.0 -2.3 59 +2 +2 1014.5 954.3 +9.8
21 18.09 З 4 30 км н/о +4.5 -1.7 64 +1 +1 1014.0 953.7
00 19.09 З 10
{19}
30 км ясно +8.5 -3.7 42 +4 +4 1013.4 954.0
03 19.09 З 7
{19}
30 км ясно +12.2 -6.7 26 +10 +13 1014.3 955.6
06 19.09 З 6
{17}
30 км ясно +13.8 -6.4 24 +12 +15 1013.4 946.4 +3.6
09 19.09 З 9 30 км ясно +11.2 -6.2 29 +8 +8 1016.0 957.0
12 19.09 З 4 30 км ясно +8.2 -3.3 44 +6 +6 1017.7 958.0
18 19.09 З 3 30 км ?/? +3.1 -1.3 73 -1 -1 1018.6 957.7 +14.3
21 19.09 З 2 30 км н/о +2.0 -1.4 78 -1 -1 1020.2 959.0
00 20.09 З 3 30 км ясно +7.7 +0.7 61 +5 +9 1020.8 960.8

 

Местоположение метеостанции Суйфэньхэ (Хэйлунцзян, Китай): широта 44.38 долгота 131.15 высота над уровнем моря 498 м.

В архиве по умолчанию представлена погода в Суйфэньхэ за последнюю неделю. Архивные данные за месяц целиком и за предыдущие месяцы, начиная с января 2011 года, Вы можете получить, выбрав интересующий диапазон дат из раскрывающегося списка и нажав кнопку "Ввод!".


*Определитесь, кто Вы:
робот инопланетянин человек

Внимание! Время в таблицах - всемирное. Для получения местного времени необходимо прибавить поправку, которая равна 8 ч.

Смотрите также архив погоды в соседних городах и на ближайших метеорологических станциях:

Погода в Пограничном (Приморский край, Россия) (12 км)
Погода в Полтавке (Приморский край, Россия) (41 км)
Погода в Хороле (Приморский край, Россия) (68 км)
Погода в Астраханке (Приморский край, Россия) (77 км)
Погода в Тимирязевском (Приморский край, Россия) (82 км)
Погода в Цзиси (Хэйлунцзян, Китай) (101 км)
Погода в Турьем Роге (Приморский край, Россия) (113 км)
Погода в Муданьцзяне (Хэйлунцзян, Китай) (125 км)
Погода в Барабаше (Приморский край, Россия) (133 км)
Погода в Спасск-Дальнем (Приморский край, Россия) (134 км)

Пояснения к столбцам:

Ветер - указаны скорость ветра в м/с - средняя за 10 мин, порывы в срок и между сроками (в фигурных скобках) и направление, откуда дует ветер: С - северный, СВ - северо-восточный, В - восточный, ЮВ - юго-восточный, Ю - южный, ЮЗ - юго-западный, З - западный, СЗ - северо-западный.
Видимость - горизонтальная дальность видимости в метрах или километрах. При видимости от 1 до 10 км при отсутствии осадков обычно наблюдается дымка, при ухудшении видимости до 1 км и менее - туман. В сухую погоду видимость может ухудшаться дымом, пылью или мглою.
Явления - указаны атмосферные явления, наблюдавшиеся в срок или в последний час перед сроком; фигурными скобками обозначены явления, наблюдавшиеся между сроками (за 1-3 часа до срока); квадратными скобками обозначены град или гололедные отложения с указанием их диаметра в мм.
Облачность - указаны через наклонную черту общая и нижняя облачность в баллах и высота нижней границы облаков в метрах; квадратными скобками обозначены формы облаков: Ci - перистые, Cs - перисто-слоистые, Cc - перисто-кучевые, Ac - высококучевые, As - высокослоистые, Sc - слоисто-кучевые, Ns - слоисто-дождевые, Cu - кучевые, Cb - кучево-дождевые. Подробнее классификацию облаков см. в Атласе облаков (PDF).
T - Температура воздуха - температура, измеренная на высоте 2 м над землей.
Td - Температура точки росы - температура, при понижении до которой содержащийся в воздухе водяной пар достигнет насыщения.
f - Относительная влажность воздуха - влажноcть воздуха, измеренная на высоте 2 м над землей.
Te - Эффективная температура - температура, которую ощущает одетый по сезону человек в тени. Характеристика душности погоды. При расчете учитывается влияние влажности воздуха и скорости ветра на теплоощущения человека.
Tes - Эффективная температура на солнце - температура, которую ощущает человек, с поправкой на солнечный нагрев. Характеристика знойности погоды. Зависит от высоты солнца над горизонтом, облачности и скорости ветра. Ночью, в пасмурную погоду, а также при ветре 12 м/с и более поправка равна нулю.
P - Атмосферное давление - приведенное к уровню моря атмосферное давление.
Po - Атмосферное давление - измеренное на уровне метеостанции атмосферное давление.
Tmin - Минимальная температура - минимум температуры воздуха на высоте 2 м над землей.
Tmax - Максимальная температура - максимум температуры воздуха на высоте 2 м над землей.
R - Количество осадков - Количество выпавших осадков за период времени, мм. При наведении курсора мыши на число - период времени, за который выпало указанное количество осадков.
R24 - Количество осадков - Количество выпавших осадков за 24 часа, мм.
S - Снежный покров - Высота снежного покрова, см. При наведении курсора мыши на число - состояние снежного покрова и степень покрытия местности в баллах.